Tracking 29892 objects as of 21-Nov-2024
HD Live streaming from Space Station
objects crossing your sky now

STARLINK-31475

Track STARLINK-31475 now!
10-day predictions
STARLINK-31475 is classified as:


NORAD ID: 59310
Int'l Code: 2024-056Q
Perigee: 450.2 km
Apogee: 452.3 km
Inclination: 43.0 °
Period: 93.5 minutes
Semi major axis: 6822 km
RCS: Unknown
Launch date: March 24, 2024
Source: United States (US)
Launch site: AIR FORCE EASTERN TEST RANGE (AFETR)
Your satellite tracking list
Your tracking list is empty




NASA's NSSDC Master Catalog

Two Line Element Set (TLE):
1 59310U 24056Q   24325.29703545  .00003889  00000-0  10036-3 0  9997
2 59310  43.0022  47.8721 0001518 219.4387 140.6359 15.40686540 38513
Source of the keplerian elements: AFSPC